Tracking 35331 objects as of 15-Sep-2026
HD Live streaming from Space Station
objects crossing your sky now

GLOBALSTAR M029

Track GLOBALSTAR M029 now!
10-day predictions
GLOBALSTAR M029 is classified as:


NORAD ID: 25963
Int'l Code: 1999-062C
Launch date: November 22, 1999
Source: Globalstar (GLOB)
Launch site: TYURATAM MISSILE AND SPACE COMPLEX (TTMTR)
Your satellite tracking list
Your tracking list is empty




NASA's NSSDC Master Catalog

Two Line Element Set (TLE):
1 25963U 99062C   26257.41775846 -.00000058  00000-0  34691-3 0  9995
2 25963  51.9814 305.9576 0002286 283.9383  89.1834 11.99913537223653
Source of the keplerian elements: AFSPC